Startpagina
METAR-TAF:

METAR-TAF

Vliegvelden :

Erie, Colorado, Verenigde Staten

breedte: 40-00-37N, lengte: 105-02-53W, hoogte: 1564 m

Actueel weer

Dit bericht is 29 minuten geleden gemaakt, om 13:12 UTC
Weinig wind
Temperatuur 9°C
Vochtigheid 43%
Druk 1003 hPa
Zicht: 16.1 km
Onbewolkt

METAR: KEIK 181312Z AUTO 00000KT 10SM CLR 09/M03 A2963 RMK AO2 T00851035

Tijdstip: 07:41 (13:41 UTC)


TAF: ontbreekt

Waarnemingen en weersverwachtingen van meer dan 4000 vliegvelden (METAR en TAF).

De beschikbare stations zijn de gele en rode punten op de kaart.

Ga met uw muis naar het station om de naam te zien.

Klik dan om waarnemingen en weersverwachtingen te zien.

kaart wijzigen: klik op de groene knoppen met een zwart kruis om in te zoomen, op de groene knop met een streepje om uit te zoomen of op de groene pijlen voor aangrenzende kaarten.


METAR-TAF: